Location: Asheville, NC
(35.6000°N, 82.5500°W)
Time: 22:49:55

N. Korean satellite - Pass Details

Date: 16 March 2018
Orbit: 460 x 512 km, 97.2° (Epoch: 18 March)

Event Time Altitude Azimuth Distance (km) Brightness Sun altitude
Rises 19:58:32 0° 190° (S) 2,527 10.3 -4.9°
Reaches altitude 10° 20:00:46 10° 203° (SSW) 1,663 9.6 -5.3°
Maximum altitude 20:03:53 28° 263° (W) 946 9.1 -6.0°
Drops below altitude 10° 20:07:05 10° 324° (NW) 1,700 9.9 -6.6°
Sets 20:09:24 0° 336° (NNW) 2,597 10.7 -7.1°
